{"data":{"norad_id":69331,"intl_designator":"2026-122C","name":"STARLINK-37768","alt_names":[],"object_type":"PAYLOAD","status":"ACTIVE","operator":null,"country":"US","launch_date":"2026-06-03","launch_site_code":"AFWTR","launch_vehicle":null,"mission":null,"orbit_class":"UNKNOWN","rcs_meters":null,"size_class":null,"mass_kg":null,"dimensions":null,"purposes":["comms"],"wikipedia_slug":null,"has_3d_model":false,"image_url":null,"decayed_at":null,"tle_current":{"epoch":"2026-09-19T12:17:16.021536Z","epoch_age_seconds":114255,"freshness":"FRESH","line1":"1 69331U 26122C   26262.51199099  .00013314  00000+0  41396-3 0  9993","line2":"2 69331  97.2839 291.0792 0001343  94.2939 265.8458 15.33448214 16649","mean_motion":15.33448214,"eccentricity":0.0001343,"inclination_deg":97.2839,"raan_deg":291.0792,"arg_perigee_deg":94.2939,"mean_anomaly_deg":265.8458,"bstar":0.00041396,"rev_number":1664,"period_min":93.90600783601,"perigee_km":464.6145069289,"apogee_km":466.45271685525,"semimajor_km":6843.6706118921,"source":"CELESTRAK","updated_at":"2026-09-20T09:00:44.159310Z"}}}